STARLINK-5782 (56034 NORAD) Tracking and Keplerian Element Data

This shows tracking and keplerian element data for the satellite.

Feedback or suggestion? Click here.




ElementValue
Catalog56034
NameSTARLINK-5782
Epoch Orbit719
Epoch Day127.16667824
Epoch Year2023
RAAN292.1825
Inclination42.9992
Eccentricity0.0001429
Argument of Perigee275.1328
Mean Anonmoly173.5793
Mean Motion15.54708232
Decay Rate-0.00928154
L11 56034U 23042BA 23127.16667824 -.00928154 00000+0 -15038-1 0 9992
L22 56034 42.9992 292.1825 0001429 275.1328 173.5793 15.54708232 7197



Live tracking and technical data element details for STARLINK-5782 (NORAD 56034). STARLINK-5782 can be tracked NOW for your location showing map with azimuth and elevation plus other details from your city location.







IsCatalogInMostPopularTable: catalog: 56034, numindb: 2
Update: records affected: 1



GetName: 56034 STARLINK-5782

Hit Count: updated at: Sun, 04 Jun 2023 23:46:11 GMT